Zurück zum Katalog

STARLINK-5549

AktivKommunikationSSO
NORAD 56360·PAYLOAD·🇺🇸 United States

Gestartet Apr 27, 2023 von Vandenberg Space Force Base

Loading…

Nächste Überflüge (nächste 24 Stunden)

TLE

AktuellSource: CelesTrak SupGP

Epoche: Sep 14, 2026, 21:32 UTC

1 56360C 23058AV  26257.89770833  .00049249  00000+0  15287-2 0  2574
2 56360  97.2849 254.7702 0001816  86.8214 101.9141 15.33415144    12

Verfolge STARLINK-5549 in Echtzeit mit AllMySat

Download on the App Store